This is the latest recevied weather packets stored in our database for station/object KB0RPJ. If no packets are shown the sender has not sent any weather packets the latest 10 day(s).
| Time | Temp. | Humidity | Pressure | Rain* | Wind** | Luminosity | Snow |
|---|---|---|---|---|---|---|---|
| 1777876505 | 13.89° C | 78% | 1005.4 hPa | 0 mm | - | 0 W/m² | - |
| 1777876205 | 13.89° C | 79% | 1005.7 hPa | 0.25 mm | - | 0 W/m² | - |
| 1777875904 | 13.89° C | 80% | 1007.7 hPa | 0.51 mm | - | 0 W/m² | - |
| 1777875606 | 13.33° C | 81% | 1007.6 hPa | 0.76 mm | - | 0 W/m² | - |
| 1777875305 | 13.33° C | 82% | 1007.1 hPa | 0.76 mm | - | 0 W/m² | - |
| 1777875005 | 13.33° C | 82% | 1006.8 hPa | 0.76 mm | - | 0 W/m² | - |
| 1777874704 | 13.33° C | 81% | 1006.6 hPa | 0.76 mm | - | 0 W/m² | - |
| 1777874404 | 13.33° C | 80% | 1006.5 hPa | 0.76 mm | - | 0 W/m² | - |
| 1777874105 | 13.89° C | 81% | 1006.5 hPa | 0.76 mm | - | 0 W/m² | - |
| 1777873805 | 13.89° C | 80% | 1006.5 hPa | 0.76 mm | - | 0 W/m² | - |
| 1777873505 | 14.44° C | 77% | 1006.6 hPa | 0.76 mm | - | 0 W/m² | - |
| 1777873221 | 14.44° C | 75% | 1006.6 hPa | 0.76 mm | - | 0 W/m² | - |
| 1777872906 | 15° C | 73% | 1006.7 hPa | 0.76 mm | - | 0 W/m² | - |
| 1777872606 | 15° C | 71% | 1007 hPa | 0.76 mm | - | 0 W/m² | - |
| 1777872308 | 15° C | 66% | 1007.1 hPa | 0.51 mm | - | 0 W/m² | - |
| 1777872006 | 15° C | 66% | 1007.7 hPa | 0 mm | - | 0 W/m² | - |
| 1777871720 | 15° C | 66% | 1006.8 hPa | 0 mm | - | 0 W/m² | - |
| 1777871406 | 15° C | 66% | 1006.7 hPa | 0 mm | - | 0 W/m² | - |
| 1777871105 | 15° C | 65% | 1006.8 hPa | 0 mm | - | 0 W/m² | - |
| 1777870816 | 15° C | 65% | 1006.7 hPa | 0 mm | - | 0 W/m² | - |
| 1777870505 | 15° C | 65% | 1006.7 hPa | 0 mm | - | 0 W/m² | - |
| 1777870208 | 15° C | 65% | 1006.8 hPa | 0 mm | - | 0 W/m² | - |
| 1777869905 | 15° C | 65% | 1006.9 hPa | 0 mm | - | 0 W/m² | - |
| 1777869605 | 15° C | 65% | 1007 hPa | 0 mm | - | 0 W/m² | - |
| 1777869304 | 15° C | 65% | 1007.1 hPa | 0 mm | - | 0 W/m² | - |
* Rain latest hour (hover to see other rain measurements)
** Current wind speed in m/s (hover to see current wind gust speed)